Starlink 3900

operational
NORAD ID: 52461 Int'l Des: 2022-049 Owner: SPXS Country: US Constellation: starlink
LEOCIRCULAR

Starlink 3900について

説明を読み込み中...

リアルタイム位置

3D地球を読み込み中...

次回通過

高度履歴

Altitude vs Time

uPlot chart will show altitude changes over time

軌道要素

1 52461U 22049L 25305.16755798 .00002480 00000-0 17387-3 0 9991
2 52461 53.2183 266.0808 0001402 98.1313 261.9838 15.08831622192986
Epoch: Nov 1, 2025 • Age: 24 hours

現在のステータス

高度 544.7 km
速度 7.60 km/s
衛星直下点 50.43°N, 89.34°W
打ち上げ日 May 6, 2022
運用期間 3.4 years
タイプ internet

技術仕様

分類 Payload
質量 297.00 kg
乾燥質量 220.00 kg
総質量 297.00 kg
長さ 0.20 m
直径 2.80 m
スパン 9.00 m
形状 Box + pan
製造者 SPXS
バスタイプ Starlink
フェーズステータス In Orbit
所有者/国 SPXS/US

大規模コンステレーション

Loading constellations...